Overview Statistics Trail Chart Weather Telemetry Raw packets
 

This is the latest recevied weather packets stored in our database for station/object KI5PFS. If no packets are shown the sender has not sent any weather packets the latest 10 day(s).

<< 33 34 35 36 37 38 39 >>
Time Temp. Humidity Pressure Rain* Wind** Luminosity Snow
1788132003 36.11° C 37% 1009.7 hPa 0 mm - - -
1788131404 36.11° C 37% 1009.7 hPa 0 mm - - -
1788130803 37.22° C 36% 1009.8 hPa 0 mm - - -
1788130203 37.22° C 36% 1009.8 hPa 0 mm - - -
1788129603 36.11° C 37% 1009.8 hPa 0 mm - - -
1788129015 37.22° C 36% 1009.9 hPa 0 mm - - -
1788128403 36.11° C 37% 1009.9 hPa 0 mm - - -
1788127803 37.22° C 33% 1009.9 hPa 0 mm - - -
1788127203 37.22° C 34% 1009.9 hPa 0 mm - - -
1788126603 37.78° C 34% 1009.9 hPa 0 mm - - -
1788126003 37.22° C 35% 1010 hPa 0 mm - - -
1788125404 37.78° C 33% 1010.1 hPa 0 mm - - -
1788124805 37.78° C 34% 1010.2 hPa 0 mm - - -
1788124203 37.78° C 35% 1010.2 hPa 0 mm - - -
1788123604 37.22° C 37% 1010.4 hPa 0 mm - - -
1788123004 37.22° C 36% 1010.5 hPa 0 mm - - -
1788122403 37.22° C 36% 1010.6 hPa 0 mm - - -
1788121803 37.22° C 37% 1010.7 hPa 0 mm - - -
1788121203 37.78° C 37% 1010.8 hPa 0 mm - - -
1788120604 37.22° C 36% 1011 hPa 0 mm - - -
1788120003 37.78° C 37% 1011.2 hPa 0 mm - - -
1788119404 37.78° C 36% 1011.5 hPa 0 mm - - -
1788118803 37.22° C 36% 1011.4 hPa 0 mm - - -
1788118204 37.78° C 37% 1011.6 hPa 0 mm - - -
1788117603 37.78° C 37% 1011.7 hPa 0 mm - - -

* Rain latest hour (hover to see other rain measurements)
** Current wind speed in m/s (hover to see current wind gust speed)